Time,TemperatureF,DewpointF,PressureIn,WindDirection,WindDirectionDegrees,WindSpeedMPH,WindSpeedGustMPH,Humidity,HourlyPrecipIn,Conditions,Clouds,dailyrainin,SoftwareType,DateUTC
2013-02-16 00:00:00,41.7,37.8,30.01,NNW,342,0.0,1.0,86,0.00,,,0.00,Wunderground v.1.15,2013-02-16 05:00:00,
2013-02-16 00:04:00,41.5,37.3,30.00,NNW,342,0.0,1.0,85,0.00,,,0.00,Wunderground v.1.15,2013-02-16 05:04:00,
2013-02-16 00:10:00,41.3,37.1,30.00,NNW,346,0.0,0.0,85,0.00,,,0.00,Wunderground v.1.15,2013-02-16 05:10:00,
2013-02-16 00:19:00,41.1,36.3,30.00,NNW,346,0.0,0.0,83,0.00,,,0.00,Wunderground v.1.15,2013-02-16 05:19:00,
2013-02-16 00:24:00,40.9,35.5,30.00,NNW,345,0.0,2.0,81,0.00,,,0.00,Wunderground v.1.15,2013-02-16 05:24:00,
2013-02-16 00:29:00,40.8,35.4,30.00,North,355,0.0,0.0,81,0.00,,,0.00,Wunderground v.1.15,2013-02-16 05:29:00,
2013-02-16 00:34:00,40.7,35.3,30.00,North,355,0.0,0.0,81,0.00,,,0.00,Wunderground v.1.15,2013-02-16 05:34:00,
2013-02-16 00:40:00,40.6,35.2,30.00,North,355,0.0,0.0,81,0.00,,,0.00,Wunderground v.1.15,2013-02-16 05:40:00,
2013-02-16 00:49:00,40.4,35.3,29.99,North,355,0.0,0.0,82,0.00,,,0.00,Wunderground v.1.15,2013-02-16 05:49:00,
2013-02-16 00:59:00,40.0,35.3,29.99,North,355,0.0,0.0,83,0.00,,,0.00,Wunderground v.1.15,2013-02-16 05:59:00,
2013-02-16 01:05:00,39.9,35.5,30.00,North,355,0.0,0.0,84,0.00,,,0.00,Wunderground v.1.15,2013-02-16 06:05:00,
2013-02-16 01:14:00,39.6,36.0,30.00,North,355,0.0,0.0,87,0.00,,,0.00,Wunderground v.1.15,2013-02-16 06:14:00,
2013-02-16 01:19:00,39.5,36.2,29.99,North,355,0.0,0.0,88,0.00,,,0.00,Wunderground v.1.15,2013-02-16 06:19:00,
2013-02-16 01:29:00,39.3,36.6,29.99,North,355,0.0,0.0,90,0.00,,,0.00,Wunderground v.1.15,2013-02-16 06:29:00,
2013-02-16 01:35:00,39.2,36.5,29.99,North,355,0.0,0.0,90,0.00,,,0.00,Wunderground v.1.15,2013-02-16 06:35:00,
2013-02-16 01:40:00,39.1,36.7,29.99,North,355,0.0,0.0,91,0.00,,,0.00,Wunderground v.1.15,2013-02-16 06:40:00,
2013-02-16 01:49:00,38.8,36.4,29.99,North,355,0.0,0.0,91,0.00,,,0.00,Wunderground v.1.15,2013-02-16 06:49:00,
2013-02-16 01:59:00,38.4,36.3,29.99,North,355,0.0,0.0,92,0.00,,,0.00,Wunderground v.1.15,2013-02-16 06:59:00,
2013-02-16 02:05:00,38.1,36.3,29.99,North,355,0.0,0.0,93,0.00,,,0.00,Wunderground v.1.15,2013-02-16 07:05:00,
2013-02-16 02:10:00,38.0,36.2,29.99,North,355,0.0,0.0,93,0.00,,,0.00,Wunderground v.1.15,2013-02-16 07:10:00,
2013-02-16 02:20:00,37.7,35.6,29.98,North,355,0.0,0.0,92,0.00,,,0.00,Wunderground v.1.15,2013-02-16 07:20:00,
2013-02-16 02:29:00,37.4,35.6,29.98,North,355,0.0,0.0,93,0.00,,,0.00,Wunderground v.1.15,2013-02-16 07:29:00,
2013-02-16 02:39:00,37.3,35.5,29.97,North,355,0.0,0.0,93,0.00,,,0.00,Wunderground v.1.15,2013-02-16 07:39:00,
2013-02-16 02:45:00,37.2,35.4,29.97,North,355,0.0,0.0,93,0.00,,,0.00,Wunderground v.1.15,2013-02-16 07:45:00,
2013-02-16 02:50:00,37.2,35.4,29.97,North,355,0.0,0.0,93,0.00,,,0.00,Wunderground v.1.15,2013-02-16 07:50:00,
2013-02-16 02:59:00,37.0,34.9,29.97,North,355,0.0,0.0,92,0.00,,,0.00,Wunderground v.1.15,2013-02-16 07:59:00,
2013-02-16 03:09:00,36.8,34.4,29.97,North,355,0.0,0.0,91,0.00,,,0.00,Wunderground v.1.15,2013-02-16 08:09:00,
2013-02-16 03:15:00,36.8,34.4,29.97,North,355,0.0,0.0,91,0.00,,,0.00,Wunderground v.1.15,2013-02-16 08:15:00,
2013-02-16 03:20:00,36.7,34.3,29.97,North,355,0.0,0.0,91,0.00,,,0.00,Wunderground v.1.15,2013-02-16 08:20:00,
2013-02-16 03:29:00,36.6,34.2,29.97,North,355,0.0,0.0,91,0.00,,,0.00,Wunderground v.1.15,2013-02-16 08:29:00,
2013-02-16 03:39:00,36.5,34.1,29.97,North,355,0.0,0.0,91,0.00,,,0.00,Wunderground v.1.15,2013-02-16 08:39:00,
2013-02-16 03:50:00,36.4,34.0,29.95,North,355,0.0,0.0,91,0.00,,,0.00,Wunderground v.1.15,2013-02-16 08:50:00,
2013-02-16 03:59:00,36.2,33.8,29.95,North,355,0.0,0.0,91,0.00,,,0.00,Wunderground v.1.15,2013-02-16 08:59:00,
2013-02-16 04:09:00,36.0,33.6,29.95,North,355,0.0,0.0,91,0.00,,,0.00,Wunderground v.1.15,2013-02-16 09:09:00,
2013-02-16 04:19:00,35.8,33.7,29.95,North,355,0.0,0.0,92,0.00,,,0.00,Wunderground v.1.15,2013-02-16 09:19:00,
2013-02-16 04:25:00,35.7,33.6,29.95,North,355,0.0,0.0,92,0.00,,,0.00,Wunderground v.1.15,2013-02-16 09:25:00,
2013-02-16 04:30:00,35.6,33.5,29.95,North,355,0.0,0.0,92,0.00,,,0.00,Wunderground v.1.15,2013-02-16 09:30:00,
2013-02-16 04:40:00,35.3,33.5,29.95,North,355,0.0,0.0,93,0.00,,,0.00,Wunderground v.1.15,2013-02-16 09:40:00,
2013-02-16 04:49:00,35.1,33.0,29.95,North,355,0.0,0.0,92,0.00,,,0.00,Wunderground v.1.15,2013-02-16 09:49:00,
2013-02-16 04:59:00,34.9,33.3,29.95,North,355,0.0,0.0,94,0.00,,,0.00,Wunderground v.1.15,2013-02-16 09:59:00,
2013-02-16 05:05:00,34.9,33.3,29.96,North,355,0.0,0.0,94,0.00,,,0.00,Wunderground v.1.15,2013-02-16 10:05:00,
2013-02-16 05:14:00,35.0,33.7,29.96,North,355,0.0,0.0,95,0.00,,,0.00,Wunderground v.1.15,2013-02-16 10:14:00,
2013-02-16 05:19:00,35.0,33.4,29.97,North,355,0.0,0.0,94,0.00,,,0.00,Wunderground v.1.15,2013-02-16 10:19:00,
2013-02-16 05:29:00,35.1,33.3,29.97,North,355,0.0,0.0,93,0.00,,,0.00,Wunderground v.1.15,2013-02-16 10:29:00,
2013-02-16 05:35:00,35.2,33.4,29.97,North,355,0.0,0.0,93,0.00,,,0.00,Wunderground v.1.15,2013-02-16 10:35:00,
2013-02-16 05:40:00,35.2,33.1,29.97,North,355,0.0,0.0,92,0.00,,,0.00,Wunderground v.1.15,2013-02-16 10:40:00,
2013-02-16 05:49:00,35.1,33.0,29.97,North,355,0.0,0.0,92,0.00,,,0.00,Wunderground v.1.15,2013-02-16 10:49:00,
2013-02-16 05:59:00,35.1,33.0,29.97,North,355,0.0,0.0,92,0.00,,,0.00,Wunderground v.1.15,2013-02-16 10:59:00,
2013-02-16 06:05:00,35.0,32.9,29.97,North,355,0.0,0.0,92,0.00,,,0.00,Wunderground v.1.15,2013-02-16 11:05:00,
2013-02-16 06:15:00,34.9,32.8,29.97,North,355,0.0,0.0,92,0.00,,,0.00,Wunderground v.1.15,2013-02-16 11:15:00,
2013-02-16 06:20:00,34.9,32.8,29.98,North,355,0.0,0.0,92,0.00,,,0.00,Wunderground v.1.15,2013-02-16 11:20:00,
2013-02-16 06:29:00,34.7,32.6,29.98,North,355,0.0,0.0,92,0.00,,,0.00,Wunderground v.1.15,2013-02-16 11:29:00,
2013-02-16 06:39:00,34.6,32.5,29.99,North,355,0.0,0.0,92,0.00,,,0.00,Wunderground v.1.15,2013-02-16 11:39:00,
2013-02-16 06:45:00,34.6,32.2,29.99,North,355,0.0,0.0,91,0.00,,,0.00,Wunderground v.1.15,2013-02-16 11:45:00,
2013-02-16 06:50:00,34.6,32.2,29.99,North,355,0.0,0.0,91,0.00,,,0.00,Wunderground v.1.15,2013-02-16 11:50:00,
2013-02-16 06:59:00,34.6,32.0,29.99,North,355,0.0,0.0,90,0.00,,,0.00,Wunderground v.1.15,2013-02-16 11:59:00,
2013-02-16 07:09:00,34.6,32.2,29.99,North,355,0.0,0.0,91,0.00,,,0.00,Wunderground v.1.15,2013-02-16 12:09:00,
2013-02-16 07:15:00,34.5,32.4,29.99,North,355,0.0,0.0,92,0.00,,,0.00,Wunderground v.1.15,2013-02-16 12:15:00,
2013-02-16 07:20:00,34.4,32.3,29.99,North,355,0.0,0.0,92,0.00,,,0.00,Wunderground v.1.15,2013-02-16 12:20:00,
2013-02-16 07:29:00,34.4,32.0,29.99,North,355,0.0,0.0,91,0.00,,,0.00,Wunderground v.1.15,2013-02-16 12:29:00,
2013-02-16 07:39:00,34.4,32.3,30.00,North,355,0.0,0.0,92,0.00,,,0.00,Wunderground v.1.15,2013-02-16 12:39:00,
2013-02-16 07:50:00,34.4,32.6,29.99,North,355,0.0,0.0,93,0.00,,,0.00,Wunderground v.1.15,2013-02-16 12:50:00,
2013-02-16 07:59:00,34.4,32.6,29.99,North,355,0.0,0.0,93,0.00,,,0.00,Wunderground v.1.15,2013-02-16 12:59:00,
2013-02-16 08:09:00,34.4,32.6,30.00,North,355,0.0,0.0,93,0.00,,,0.00,Wunderground v.1.15,2013-02-16 13:09:00,
2013-02-16 08:19:00,34.4,32.6,30.01,North,355,0.0,0.0,93,0.00,,,0.00,Wunderground v.1.15,2013-02-16 13:19:00,
2013-02-16 08:24:00,34.4,32.3,30.01,SSE,155,0.0,0.0,92,0.00,,,0.00,Wunderground v.1.15,2013-02-16 13:24:00,
2013-02-16 08:30:00,34.5,32.4,30.01,SSE,155,0.0,0.0,92,0.00,,,0.00,Wunderground v.1.15,2013-02-16 13:30:00,
2013-02-16 08:39:00,34.8,33.0,30.00,East,95,0.0,0.0,93,0.00,,,0.00,Wunderground v.1.15,2013-02-16 13:39:00,
2013-02-16 08:49:00,34.9,32.5,30.02,ESE,107,0.0,0.0,91,0.00,,,0.00,Wunderground v.1.15,2013-02-16 13:49:00,
2013-02-16 08:55:00,34.9,32.3,30.02,NE,46,0.0,0.0,90,0.00,,,0.00,Wunderground v.1.15,2013-02-16 13:55:00,
2013-02-16 09:04:00,35.0,32.1,30.02,North,355,0.0,1.0,89,0.00,,,0.00,Wunderground v.1.15,2013-02-16 14:04:00,